sat.trackr.live / text

‹ back to catalog

STARLINK-32033

NORAD 60144 · 2024-120K

PAYLOAD ACTIVE UNKNOWN

§ Identity

Operator
Country
US
Launch date
2024-06-27
Launch site
AFETR
Launch vehicle
Mass (kg)
RCS (m²)

Purposes: comms

External: N2YO · Heavens-Above · Gunter

§ Orbital elements

Epoch: 2026-05-24T21:08:00.612960Z

Period
94.11 min
Inclination
53.1608°
Eccentricity
0.0001138
Mean motion
15.30194228 rev/d
Perigee alt
474.5 km
Apogee alt
476.0 km
Semi-major
6,853.4 km
B*
2.8080e-5
RAAN
325.8674°
Arg perigee
90.5241°
Mean anomaly
269.5890°
Rev number
10,804

§ Raw data

STARLINK-320331 60144U 24120K   26144.88056265  .00000472  00000+0  28080-4 0  99952 60144  53.1608 325.8674 0001138  90.5241 269.5890 15.30194228108046

JSON: /api/v1/satellites/60144 · /tle

For live sub-satellite position, see the globe view (requires WebGL).

§ Visibility from observer

Set your observer location to see the next 7 days of passes ≥ 10°. The values pass through the URL so the page stays shareable.

No JS? Fill the form by hand. The geolocation button needs JavaScript.